This is the latest recevied weather packets stored in our database for station/object K0SDS. If no packets are shown the sender has not sent any weather packets the latest 10 day(s).
| Time | Temp. | Humidity | Pressure | Rain* | Wind** | Luminosity | Snow |
|---|---|---|---|---|---|---|---|
| 1778103175 | 16.67° C | 34% | 1017.3 hPa | 0 mm | - | 373 W/m² | - |
| 1778102872 | 17.22° C | 38% | 1017.4 hPa | 0 mm | - | 323 W/m² | - |
| 1778102568 | 17.22° C | 39% | 1017.6 hPa | 0 mm | - | 494 W/m² | - |
| 1778102263 | 17.78° C | 36% | 1017.6 hPa | 0 mm | - | 534 W/m² | - |
| 1778101960 | 17.22° C | 42% | 1017.6 hPa | 0 mm | - | 542 W/m² | - |
| 1778101657 | 17.22° C | 36% | 1017.5 hPa | 0 mm | - | 541 W/m² | - |
| 1778101354 | 17.78° C | 37% | 1017.7 hPa | 0 mm | - | 525 W/m² | - |
| 1778101051 | 17.22° C | 38% | 1018 hPa | 0 mm | - | 550 W/m² | - |
| 1778100747 | 17.22° C | 36% | 1018 hPa | 0 mm | - | 551 W/m² | - |
| 1778100444 | 16.67° C | 35% | 1017.9 hPa | 0 mm | - | 542 W/m² | - |
| 1778100141 | 16.67° C | 35% | 1017.9 hPa | 0 mm | - | 575 W/m² | - |
| 1778099839 | 16.67° C | 35% | 1018.4 hPa | 0 mm | - | 555 W/m² | - |
| 1778099536 | 16.67° C | 37% | 1018.2 hPa | 0 mm | - | 580 W/m² | - |
| 1778099233 | 16.11° C | 44% | 1018.3 hPa | 0 mm | - | 607 W/m² | - |
| 1778098929 | 17.22° C | 36% | 1018.4 hPa | 0 mm | - | 580 W/m² | - |
| 1778098621 | 16.67° C | 41% | 1018.5 hPa | 0 mm | - | 614 W/m² | - |
| 1778098317 | 16.11° C | 40% | 1018.7 hPa | 0 mm | - | 580 W/m² | - |
| 1778098014 | 16.11° C | 41% | 1018.5 hPa | 0 mm | - | 554 W/m² | - |
| 1778097711 | 15.56° C | 37% | 1018.5 hPa | 0 mm | - | 596 W/m² | - |
| 1778097407 | 16.11° C | 37% | 1018.6 hPa | 0 mm | - | 618 W/m² | - |
| 1778097104 | 16.11° C | 38% | 1018.5 hPa | 0 mm | - | 636 W/m² | - |
| 1778096801 | 16.67° C | 36% | 1018.4 hPa | 0 mm | - | 611 W/m² | - |
| 1778096497 | 16.11° C | 42% | 1018.5 hPa | 0 mm | - | 615 W/m² | - |
| 1778096195 | 15.56° C | 38% | 1018.8 hPa | 0 mm | - | 621 W/m² | - |
| 1778095892 | 16.11° C | 41% | 1018.6 hPa | 0 mm | - | 624 W/m² | - |
* Rain latest hour (hover to see other rain measurements)
** Current wind speed in m/s (hover to see current wind gust speed)